Вернуться в каталог

PUNCH-NFI00

АктивенНаукаSSO
NORAD 63178·PAYLOAD·🇺🇸 United States

Запущен Mar 12, 2025 с Vandenberg Space Force Base

Loading…

Ближайшие Пролёты (ближайшие 24 часа)

TLE

СвежийSource: Space-Track

Эпоха: Sep 14, 2026, 10:20 UTC

1 63178U 25047A   26257.43073319  .00000348  00000-0  59477-4 0  9996
2 63178  97.9584  81.3598 0009983 227.2421 132.7949 14.74844722 81234

Отслеживайте PUNCH-NFI00 в реальном времени с AllMySat

Download on the App Store